Location: Doverdale
(52.2833°N, 2.2000°W)
Time: 03:35:02
(UTC+00:00)

MetOp-A - Pass Details

Date: 29 October 2020
Orbit: 819 x 821 km, 98.5° (Epoch: 24 November)

Event Time Altitude Azimuth Distance (km) Brightness Sun altitude
Exits shadow 19:21:44 52° 47° (NE) 1,024 4.3 -24.5°
Drops below altitude 10° 19:26:28 10° 352° (N) 2,431 6.8 -25.2°
Sets 19:28:52 0° 348° (NNW) 3,368 7.6 -25.5°
